Hourly Data Report for October 08, 2016

All times are specified in Local Standard Time (LST). Add 1 hour to adjust for Daylight Saving Time where and when it is observed.

ARVIAT A
NUNAVUT

61°05'38.000" N
94°04'18.000" W
10.40 m
2300427
71174
YEK

Related Data

No related data is available for this station

Download Data

Hourly Data (October 2016)
Hourly Data Report for October 8, 2016
Temp Definition
°C
Dew Point Temp Definition
°C
Rel Hum Definition
%
Wind Dir Definition
10's deg

Wind Spd Definition
km/h
Visibility Definition
km
Stn Press Definition
kPa
Hmdx Definition


Wind Chill Definition


Weather Definition


TIME
00:00 Legend Double Dagger -0.5 -4.1 77 33 9 16.1 102.45   -4 LegendNANA
01:00 Legend Double Dagger -0.6 -4.5 75 35 22 16.1 102.42   -6 LegendNANA
02:00 Legend Double Dagger -0.9 -4.6 76 33 17 16.1 102.40   -6 LegendNANA
03:00 Legend Double Dagger -1.0 -4.1 80 34 15 16.1 102.38   -6 LegendNANA
04:00 Legend Double Dagger -1.1 -1.5 97 35 15 2.8 102.38   -6 Snow
05:00 Legend Double Dagger -0.8 -1.7 94 33 28 16.1 102.32   -7 LegendNANA
06:00 Legend Double Dagger -0.9 -1.6 95 35 28 6.4 102.34   -7 Snow
07:00 Legend Double Dagger -0.7 -1.7 93 35 28 1.6 102.35   -7 Snow
08:00 Legend Double Dagger -0.7 -2.0 91 35 26 16.1 102.35   -7 LegendNANA
09:00 Legend Double Dagger -0.7 -2.3 89 36 28 16.1 102.34   -7 LegendNANA
10:00 Legend Double Dagger -0.2 -2.4 85 36 26 16.1 102.34   -6 LegendNANA
11:00 Legend Double Dagger -0.1 -3.0 81 35 22 16.1 102.34   -6 LegendNANA
12:00 Legend Double Dagger 1.0 -4.3 68 36 18 16.1 102.34     LegendNANA
13:00 Legend Double Dagger 1.5 -5.4 60 36 21 16.1 102.32     LegendNANA
14:00 Legend Double Dagger 1.5 -6.2 57 34 15 16.1 102.33     LegendNANA
15:00 Legend Double Dagger 1.5 -4.9 63 34 11 16.1 102.31     LegendNANA
16:00 Legend Double Dagger 1.8 -4.5 63 33 9 16.1 102.31     LegendNANA
17:00 Legend Double Dagger 0.7 -3.4 74 31 8 16.1 102.31     LegendNANA
18:00 Legend Double Dagger 0.6 -3.2 76 29 11 16.1 102.28     LegendNANA
19:00 Legend Double Dagger 0.2 -2.4 83 29 8 16.1 102.28     LegendNANA
20:00 Legend Double Dagger -0.2 -1.8 89   0 16.1 102.25     LegendNANA
21:00 Legend Double Dagger -0.7 -2.1 90 22 5 16.1 102.22   -2 LegendNANA
22:00 Legend Double Dagger -0.7 -2.0 91 23 11 16.1 102.20   -4 LegendNANA
23:00 Legend Double Dagger -0.7 -1.8 92 23 11 16.1 102.18   -4 LegendNANA

Notes on Data Quality.

Legend

  • E = Estimated
  • M = Missing
  • NA = Not Available
  • ‡ = Partner data that is not subject to review by the National Climate Archives
Date modified: